Regional Weather Roundup
Issued by NWS Charleston, SC

Current Version | Previous Version | Graphics & Text | Print | Product List | Glossary On
Versions: 1 2 3 4 5 6 7 8 9 10 11 12 13 14 15 16 17 18 19 20 21 22 23 24 25 26 27 28 29 30 31 32 33 34 35 36 37 38 39 40 41 42 43 44 45 46 47 48 49 50
000 ASUS42 KCHS 101712 RWRCHS REGIONAL WEATHER ROUNDUP NATIONAL WEATHER SERVICE CHARLESTON SC 1200 PM EST WED FEB 10 2016 NOTE: "FAIR" INDICATES FEW OR NO CLOUDS BELOW 12,000 FEET WITH NO SIGNIFICANT WEATHER AND/OR OBSTRUCTIONS TO VISIBILITY. NOT ALL STATIONS ARE QUALITY CONTROLLED BY THE NATIONAL WEATHER SERVICE. USE DATA WITH CAUTION...ESPECIALLY DEWPOINT OBSERVATIONS. SCZ027-030-031-034>040-042>050-101800- ...SOUTHEAST SOUTH CAROLINA... CITY SKY/WX TMP DP RH WIND PRES REMARKS N CHARLESTON MOSUNNY 39 17 41 W18G24 30.03F WCI 30 WATERFRONT PRK N/A 36 19 50 W9 29.89F WCI 29 MOUNT PLEASANT FAIR 37 19 48 W13G22 30.04F WCI 29 JOHNS ISLAND FAIR 39 19 45 W17 30.04F WCI 30 PINOPOLIS N/A 34 21 60 W15 29.94F WCI 24 MONCKS CORNER FAIR 34 14 44 W5G20 30.03F WCI 30 SUMMERVILLE FAIR 37 21 52 W13G22 30.05F WCI 29 BEAUFORT MCAS SUNNY 40 17 39 W17G28 30.07F WCI 31 BEAUFORT ARPT FAIR 39 19 45 W15G24 30.07F WCI 31 HILTON HEAD IS SUNNY 39 21 48 W14G26 30.08F WCI 31 WALTERBORO PTSUNNY 39 19 45 W14G24 30.06F WCI 31 ALLENDALE FAIR 37 14 38 W14G23 30.07S WCI 29 ...SOUTHERN MIDLANDS AND PEE DEE... CITY SKY/WX TMP DP RH WIND PRES REMARKS GEORGETOWN NOT AVBL KINGSTREE NOT AVBL ORANGEBURG MOSUNNY 38 16 40 W18G25 30.03F WCI 28 BARNWELL FAIR 37 18 44 W20G25 30.06S WCI 27 AIKEN FAIR 34 12 40 W17G26 30.07S WCI 23 MANNING PTSUNNY 34 16 47 W14G20 30.03F WCI 24 COLUMBIA PTSUNNY 35 15 44 W18 30.03F WCI 24 SUMTER MOSUNNY 36 13 38 SW20G25 29.98F WCI 25 FLORENCE MOSUNNY 36 16 44 W14G23 29.98F WCI 27 MYRTLE BEACH MOSUNNY 39 18 41 W12 30.00F WCI 32 N MYRTLE BEACH MOSUNNY 39 20 46 W8 29.97F WCI 33 $$ GAZ063-065-086>088-099>101-113>116-118-119-134>141-150-101800- ...SOUTHEAST GEORGIA... CITY SKY/WX TMP DP RH WIND PRES REMARKS SAVANNAH ARPT MOSUNNY 40 17 39 W25G31 30.11F WCI 29 HUNTER AAF SUNNY 41 17 38 W20G30 30.08F FORT STEWART SUNNY 41 16 36 W22G29 30.10F STATESBORO SUNNY 42 8 25 NW16G25 30.11F SYLVANIA SUNNY 39 21 48 NW17G26 30.10F WCI 30 CLAXTON FAIR 40 22 48 SW14G24 30.13F WCI 33 ...CSRA...CENTRAL AND FAR SOUTHEAST GEORGIA... CITY SKY/WX TMP DP RH WIND PRES REMARKS THOMSON SUNNY 35 15 45 W16G25 30.14F WCI 24 AUGUSTA-BUSH SUNNY 35 11 36 W16G33 30.10R WCI 25 AUGUSTA-DANIEL NOT AVBL SWAINSBORO FAIR 37 14 38 W17G24 30.14S WCI 28 VIDALIA SUNNY 37 16 41 W12G20 30.15S WCI 30 EASTMAN FAIR 37 11 34 NW12G25 30.21F WCI 29 HAZLEHURST FAIR 40 14 35 W10G22 30.17S WCI 33 ALMA SUNNY 39 16 39 W18G25 30.18F WCI 30 WAYCROSS SUNNY 43 21 40 NW18G26 30.18F JESUP FAIR 43 21 42 W13G32 30.16F BAXLEY FAIR 41 18 38 NW13G21 30.17S BRUNSWICK SUNNY 43 21 42 W21G28 30.15F SAINT SIMONS SUNNY 41 16 36 W14G28 30.14F $$ SCZ027-028-034-036>038-045-046-048>050-GAZ119-141-101800- ...LAKE AND SUPPLEMENTAL COASTAL OBSERVATIONS... STATION/POSITION TIME TEMP WIND PRES WAVE SWELL AIR SEA DIR/SP/G HT/PER HT/PER/DIR (UTC) (F) (DEG/KT/KT) (MB) (FT/S) (FT/S/D) WINYAH BAY 1545 35 270/ 11 1015.0 LAKE MURRAY 1600 32 270/ 15/ 21 1016.3F ACE BASIN NERRS 1545 36 270/ 6 1018.0 FORT PULASKI 1600 35 50 280/ 21/ 24 1019.7F SAPELO ISLAND 1600 38 280/ 20 1021.0R $$ ANZ835-935-AMZ111-154-330-350-352-354-370-450-454-472-101800- ...C-MAN AND BUOY OBSERVATIONS... STATION/POSITION TIME TEMP WIND PRES WAVE SWELL AIR SEA DIR/SP/G HT/PER HT/PER/DIR (UTC) (F) (DEG/KT/KT) (MB) (FT/S) (FT/S/D) BUOY 41004 1650 38 63 280/ 21/ 25 1016.1F 7/ 7 2/12 BUOY 41008 1650 38 54 290/ 19/ 25 1019.9R 5/ 4 FOLLY BEACH CMAN 1700 37 270/ 9/ 15 1017.0F CAPERS NEARSHORE 1608 35 290/ 16/ 21 1017.0F FRIPP NEARSHORE 1600 37 280/ 19/ 25 1018.1F STATION/POSITION TIME TEMP WIND PRES WAVE SWELL AIR SEA DIR/SP/G HT/PER HT/PER/DIR (UTC) (F) (DEG/KT/KT) (MB) (FT/S) (FT/S/D) 5E ST. MARYS GA NOT AVBL FRYING PAN BUOY 1600 39 60 260/ 17/ 23 1015.4S BUOY 41025 1650 38 72 280/ 19/ 25 1012.7F 7/ 7 5/200/ 8 CAPE LOOKOUT NC NOT AVBL BUOY 41002 1650 53 68 280/ 29/ 35 N/A 17/11 10/270/11 BUOY 41010 1620 57 72 1021.0F ST AUGUSTINE FL 1700 48 55 280/ 14/ 18 1022.2F $$

USA.gov is the U.S. government's official web portal to all federal, state and local government web resources and services.